,,,PA_Meas_PMT16A,,PR_Meas_QMR101_102,,RH_Meas_QMH101,,SR_Meas_QMS101,,TA_Meas_QMH101,,GenWind,,GenWind,
date,time,status,PA,status,PR,status,RH,status,SR,status,TA,status,DirAvg,status,SpdAvg,
2009-01-09, 00:00:04,VALID,1011.41,VALID,0,VALID,96.0616,VALID,0.105969,VALID,22.6597,VALID,23,VALID,0,
2009-01-09, 00:01:04,VALID,1011.39,VALID,0,VALID,96.0616,VALID,0.105969,VALID,22.6792,VALID,23,VALID,0,
2009-01-09, 00:02:04,VALID,1011.41,VALID,0,VALID,96.0464,VALID,0.105969,VALID,22.6597,VALID,23,VALID,0,
2009-01-09, 00:03:04,VALID,1011.45,VALID,0,VALID,96.054,VALID,0.105969,VALID,22.6402,VALID,23,VALID,0,
2009-01-09, 00:04:04,VALID,1011.45,VALID,0,VALID,96.0616,VALID,0.105969,VALID,22.6597,VALID,23,VALID,0,
2009-01-09, 00:05:04,VALID,1011.4,VALID,0,VALID,96.054,VALID,0.105969,VALID,22.6597,VALID,23,VALID,0,
2009-01-09, 00:06:04,VALID,1011.41,VALID,0,VALID,96.0464,VALID,0.105969,VALID,22.6597,VALID,23,VALID,0,
2009-01-09, 00:07:04,VALID,1011.39,VALID,0,VALID,96.0692,VALID,0.105969,VALID,22.6792,VALID,43,VALID,0.274609,
2009-01-09, 00:08:04,VALID,1011.39,VALID,0,VALID,96.0311,VALID,0.105969,VALID,22.6792,VALID,106,VALID,0.348437,
2009-01-09, 00:09:04,VALID,1011.39,VALID,0,VALID,96.054,VALID,0.105969,VALID,22.6792,VALID,106,VALID,0.124219,
2009-01-09, 00:10:04,VALID,1011.36,VALID,0,VALID,96.0616,VALID,0,VALID,22.7199,VALID,106,VALID,0.384375,
2009-01-09, 00:11:04,VALID,1011.36,VALID,0,VALID,96.0387,VALID,0,VALID,22.7394,VALID,128,VALID,0.407422,
2009-01-09, 00:12:04,VALID,1011.38,VALID,0,VALID,96.0311,VALID,0,VALID,22.7394,VALID,128,VALID,0.0046875,
2009-01-09, 00:13:04,VALID,1011.42,VALID,0,VALID,96.0464,VALID,0,VALID,22.7199,VALID,69,VALID,0,
2009-01-09, 00:14:04,VALID,1011.39,VALID,0,VALID,96.0311,VALID,0,VALID,22.7199,VALID,69,VALID,0,
2009-01-09, 00:15:04,VALID,1011.39,VALID,0,VALID,96.0311,VALID,0,VALID,22.7199,VALID,69,VALID,0,
2009-01-09, 00:16:04,VALID,1011.4,VALID,0,VALID,96.0311,VALID,0,VALID,22.7411,VALID,73,VALID,0,
2009-01-09, 00:17:04,VALID,1011.43,VALID,0,VALID,96.0464,VALID,0,VALID,22.7004,VALID,150,VALID,0.442969,
2009-01-09, 00:18:04,VALID,1011.43,VALID,0,VALID,96.0159,VALID,0,VALID,22.7199,VALID,179,VALID,0.926953,
2009-01-09, 00:19:04,VALID,1011.4,VALID,0,VALID,96.0235,VALID,0,VALID,22.7004,VALID,177,VALID,0.657422,
2009-01-09, 00:20:04,VALID,1011.45,VALID,0,VALID,96.0235,VALID,0,VALID,22.6987,VALID,229,VALID,0.482031,
2009-01-09, 00:21:04,VALID,1011.43,VALID,0,VALID,96.0311,VALID,0,VALID,22.7199,VALID,196,VALID,0.916406,
2009-01-09, 00:22:04,VALID,1011.44,VALID,0,VALID,96.0235,VALID,0,VALID,22.7004,VALID,163,VALID,1.3125,
2009-01-09, 00:23:04,VALID,1011.46,VALID,0,VALID,96.0235,VALID,0,VALID,22.7199,VALID,147,VALID,0.716797,
2009-01-09, 00:24:04,VALID,1011.48,VALID,0,VALID,96.0082,VALID,0,VALID,22.7588,VALID,177,VALID,0.845312,
2009-01-09, 00:25:04,VALID,1011.46,VALID,0,VALID,96.0006,VALID,0.105969,VALID,22.7766,VALID,187,VALID,1.05273,
2009-01-09, 00:26:04,VALID,1011.52,VALID,0,VALID,95.993,VALID,0,VALID,22.7961,VALID,202,VALID,0.921484,
2009-01-09, 00:27:04,VALID,1011.52,VALID,0,VALID,95.9625,VALID,0.105969,VALID,22.7943,VALID,201,VALID,0.967188,
2009-01-09, 00:28:04,VALID,1011.57,VALID,0,VALID,95.9625,VALID,0,VALID,22.7961,VALID,177,VALID,0.621484,
2009-01-09, 00:29:04,VALID,1011.6,VALID,0,VALID,95.9701,VALID,0,VALID,22.7766,VALID,172,VALID,0.603516,
2009-01-09, 00:30:04,VALID,1011.56,VALID,0,VALID,95.9625,VALID,0,VALID,22.7571,VALID,201,VALID,1.15078,
2009-01-09, 00:31:04,VALID,1011.56,VALID,0,VALID,95.9625,VALID,0.105969,VALID,22.7571,VALID,191,VALID,1.6457,
2009-01-09, 00:32:04,VALID,1011.59,VALID,0,VALID,95.9472,VALID,0,VALID,22.7571,VALID,199,VALID,1.37422,
2009-01-09, 00:33:04,VALID,1011.56,VALID,0,VALID,95.9549,VALID,0,VALID,22.7571,VALID,198,VALID,0.764063,
2009-01-09, 00:34:04,VALID,1011.57,VALID,0,VALID,95.9396,VALID,0,VALID,22.7376,VALID,193,VALID,0.632422,
2009-01-09, 00:35:04,VALID,1011.56,VALID,0,VALID,95.9396,VALID,0,VALID,22.7376,VALID,215,VALID,0.525781,
2009-01-09, 00:36:04,VALID,1011.57,VALID,0,VALID,95.932,VALID,0.105969,VALID,22.7376,VALID,183,VALID,0.566797,
2009-01-09, 00:37:04,VALID,1011.56,VALID,0,VALID,95.9396,VALID,0.105969,VALID,22.7376,VALID,191,VALID,0.864453,
2009-01-09, 00:38:04,VALID,1011.59,VALID,0,VALID,95.9167,VALID,0,VALID,22.7588,VALID,183,VALID,0.625781,
2009-01-09, 00:39:04,VALID,1011.6,VALID,0,VALID,95.9091,VALID,0,VALID,22.7376,VALID,183,VALID,0.4,
2009-01-09, 00:40:04,VALID,1011.57,VALID,0,VALID,95.932,VALID,0,VALID,22.7394,VALID,175,VALID,0.956641,
2009-01-09, 00:41:04,VALID,1011.55,VALID,0,VALID,95.8939,VALID,0,VALID,22.7571,VALID,183,VALID,1.48828,
2009-01-09, 00:42:04,VALID,1011.56,VALID,0,VALID,95.9167,VALID,0,VALID,22.7571,VALID,178,VALID,0.787891,
2009-01-09, 00:43:04,VALID,1011.57,VALID,0,VALID,95.8939,VALID,0,VALID,22.7961,VALID,193,VALID,0.595703,
2009-01-09, 00:44:04,VALID,1011.55,VALID,0,VALID,95.8939,VALID,0,VALID,22.7766,VALID,192,VALID,0.355859,
2009-01-09, 00:45:04,VALID,1011.49,VALID,0,VALID,95.8786,VALID,0,VALID,22.7766,VALID,193,VALID,1.15078,
2009-01-09, 00:46:04,VALID,1011.49,VALID,0,VALID,95.871,VALID,0,VALID,22.7766,VALID,192,VALID,1.12891,
2009-01-09, 00:47:04,VALID,1011.49,VALID,0,VALID,95.8633,VALID,0,VALID,22.7961,VALID,186,VALID,0.370703,
2009-01-09, 00:48:04,VALID,1011.47,VALID,0,VALID,95.8786,VALID,0,VALID,22.7961,VALID,186,VALID,0,
2009-01-09, 00:49:04,VALID,1011.47,VALID,0,VALID,95.8633,VALID,0,VALID,22.7978,VALID,211,VALID,0.439063,
2009-01-09, 00:50:04,VALID,1011.46,VALID,0,VALID,95.871,VALID,0,VALID,22.7766,VALID,197,VALID,0.797656,
2009-01-09, 00:51:04,VALID,1011.43,VALID,0,VALID,95.8481,VALID,0,VALID,22.7766,VALID,176,VALID,0.942969,
2009-01-09, 00:52:04,VALID,1011.42,VALID,0,VALID,95.8557,VALID,0,VALID,22.7961,VALID,185,VALID,0.892187,
2009-01-09, 00:53:04,VALID,1011.45,VALID,0,VALID,95.8557,VALID,0.105969,VALID,22.7961,VALID,168,VALID,0.502734,
2009-01-09, 00:54:04,VALID,1011.41,VALID,0,VALID,95.871,VALID,0,VALID,22.7961,VALID,168,VALID,0.202734,
2009-01-09, 00:55:04,VALID,1011.4,VALID,0,VALID,95.8633,VALID,0,VALID,22.8155,VALID,167,VALID,0.580859,
2009-01-09, 00:56:04,VALID,1011.41,VALID,0,VALID,95.8481,VALID,0,VALID,22.7961,VALID,143,VALID,0,
2009-01-09, 00:57:04,VALID,1011.41,VALID,0,VALID,95.8557,VALID,0,VALID,22.8155,VALID,143,VALID,0.0617188,
2009-01-09, 00:58:04,VALID,1011.34,VALID,0,VALID,95.8481,VALID,0,VALID,22.8155,VALID,164,VALID,0.612891,
2009-01-09, 00:59:04,VALID,1011.34,VALID,0,VALID,95.8557,VALID,0,VALID,22.8155,VALID,173,VALID,1.36289,
2009-01-09, 01:00:04,VALID,1011.33,VALID,0,VALID,95.8481,VALID,0.105969,VALID,22.7961,VALID,183,VALID,1.67188,
2009-01-09, 01:01:04,VALID,1011.33,VALID,0,VALID,95.8481,VALID,0,VALID,22.8155,VALID,159,VALID,0.602344,
2009-01-09, 01:02:04,VALID,1011.35,VALID,0,VALID,95.8557,VALID,0.105969,VALID,22.8155,VALID,145,VALID,0.162891,
2009-01-09, 01:03:04,VALID,1011.34,VALID,0,VALID,95.8328,VALID,0,VALID,22.8155,VALID,148,VALID,0.185547,
2009-01-09, 01:04:04,VALID,1011.31,VALID,0,VALID,95.8481,VALID,0,VALID,22.8562,VALID,352,VALID,0.233594,
2009-01-09, 01:05:04,VALID,1011.31,VALID,0,VALID,95.8176,VALID,0,VALID,22.8155,VALID,178,VALID,0.767187,
2009-01-09, 01:06:04,VALID,1011.31,VALID,0,VALID,95.8328,VALID,0,VALID,22.8155,VALID,171,VALID,0.345313,
2009-01-09, 01:07:04,VALID,1011.31,VALID,0,VALID,95.8405,VALID,0,VALID,22.7766,VALID,213,VALID,1.15313,
2009-01-09, 01:08:04,VALID,1011.3,VALID,0,VALID,95.8557,VALID,0,VALID,22.8155,VALID,215,VALID,0.975781,
2009-01-09, 01:09:04,VALID,1011.29,VALID,0,VALID,95.8405,VALID,0,VALID,22.835,VALID,234,VALID,1.025,
2009-01-09, 01:10:04,VALID,1011.3,VALID,0,VALID,95.8328,VALID,0.105969,VALID,22.8562,VALID,219,VALID,0.909766,
2009-01-09, 01:11:04,VALID,1011.24,VALID,0,VALID,95.81,VALID,0,VALID,22.8545,VALID,143,VALID,0.776563,
2009-01-09, 01:12:04,VALID,1011.21,VALID,0,VALID,95.8176,VALID,0.105969,VALID,22.835,VALID,168,VALID,0.554297,
2009-01-09, 01:13:04,VALID,1011.22,VALID,0,VALID,95.8176,VALID,0.105969,VALID,22.835,VALID,168,VALID,0.342578,
2009-01-09, 01:14:04,VALID,1011.19,VALID,0,VALID,95.7871,VALID,0.105969,VALID,22.8155,VALID,163,VALID,0.799609,
2009-01-09, 01:15:04,VALID,1011.15,VALID,0,VALID,95.81,VALID,0,VALID,22.835,VALID,162,VALID,0.769922,
2009-01-09, 01:16:04,VALID,1011.18,VALID,0,VALID,95.7871,VALID,0,VALID,22.8155,VALID,175,VALID,0.846484,
2009-01-09, 01:17:04,VALID,1011.18,VALID,0,VALID,95.8023,VALID,0.105969,VALID,22.835,VALID,198,VALID,0.44375,
2009-01-09, 01:18:04,VALID,1011.16,VALID,0,VALID,95.7718,VALID,0,VALID,22.8545,VALID,231,VALID,0.398047,
2009-01-09, 01:19:04,VALID,1011.13,VALID,0,VALID,95.7795,VALID,0,VALID,22.8545,VALID,231,VALID,0.306641,
2009-01-09, 01:20:04,VALID,1011.11,VALID,0,VALID,95.7718,VALID,0.105969,VALID,22.8333,VALID,231,VALID,0.00117188,
2009-01-09, 01:21:04,VALID,1011.09,VALID,0,VALID,95.7566,VALID,0,VALID,22.8545,VALID,227,VALID,0.446094,
2009-01-09, 01:22:04,VALID,1011.04,VALID,0,VALID,95.7718,VALID,0.105969,VALID,22.8545,VALID,204,VALID,0.651953,
2009-01-09, 01:23:04,VALID,1011.04,VALID,0,VALID,95.7642,VALID,0.105969,VALID,22.8545,VALID,173,VALID,0.852344,
2009-01-09, 01:24:04,VALID,1011.06,VALID,0,VALID,95.7566,VALID,0.105969,VALID,22.874,VALID,161,VALID,0.535156,
2009-01-09, 01:25:04,VALID,1011.05,VALID,0,VALID,95.7642,VALID,0.105969,VALID,22.9129,VALID,161,VALID,0.276172,
2009-01-09, 01:26:04,VALID,1011.03,VALID,0,VALID,95.749,VALID,0.105969,VALID,22.874,VALID,161,VALID,0.0234375,
2009-01-09, 01:27:04,VALID,1011.06,VALID,0,VALID,95.7337,VALID,0,VALID,22.874,VALID,158,VALID,0.537891,
2009-01-09, 01:28:04,VALID,1011.05,VALID,0,VALID,95.7337,VALID,0.105969,VALID,22.874,VALID,119,VALID,0.226953,
2009-01-09, 01:29:04,VALID,1011.03,VALID,0,VALID,95.7261,VALID,0.105969,VALID,22.8723,VALID,100,VALID,0.738672,
2009-01-09, 01:30:04,VALID,1011.03,VALID,0,VALID,95.7261,VALID,0,VALID,22.8935,VALID,98,VALID,0.680859,
2009-01-09, 01:31:04,VALID,1011.03,VALID,0,VALID,95.7337,VALID,0.105969,VALID,22.8935,VALID,94,VALID,0.442578,
2009-01-09, 01:32:04,VALID,1011.05,VALID,0,VALID,95.7185,VALID,0.105969,VALID,22.8935,VALID,93,VALID,0.661719,
2009-01-09, 01:33:04,VALID,1011.04,VALID,0,VALID,95.7185,VALID,0.105969,VALID,22.874,VALID,93,VALID,0.552344,
2009-01-09, 01:34:04,VALID,1011.04,VALID,0,VALID,95.7108,VALID,0.105969,VALID,22.8545,VALID,95,VALID,0.4,
2009-01-09, 01:35:04,VALID,1011.07,VALID,0,VALID,95.7032,VALID,0.105969,VALID,22.874,VALID,139,VALID,0.494141,
2009-01-09, 01:36:04,VALID,1011.06,VALID,0,VALID,95.7185,VALID,0.105969,VALID,22.874,VALID,130,VALID,0.489844,
2009-01-09, 01:37:04,VALID,1011.05,VALID,0,VALID,95.7108,VALID,0.105969,VALID,22.8545,VALID,130,VALID,0.553906,
2009-01-09, 01:38:04,VALID,1011.02,VALID,0,VALID,95.7032,VALID,0.105969,VALID,22.874,VALID,132,VALID,0.785156,
2009-01-09, 01:39:04,VALID,1011.01,VALID,0.5,VALID,95.7032,VALID,0.105969,VALID,22.874,VALID,121,VALID,0.728125,
2009-01-09, 01:40:04,VALID,1011.01,VALID,0,VALID,95.7185,VALID,0.105969,VALID,22.874,VALID,126,VALID,0.655859,
2009-01-09, 01:41:04,VALID,1011.01,VALID,0,VALID,95.7108,VALID,0.105969,VALID,22.874,VALID,150,VALID,0.926172,
2009-01-09, 01:42:04,VALID,1011.02,VALID,0,VALID,95.7185,VALID,0.105969,VALID,22.8545,VALID,132,VALID,0.729297,
2009-01-09, 01:43:04,VALID,1011,VALID,0,VALID,95.7185,VALID,0.105969,VALID,22.8545,VALID,130,VALID,0.723828,
2009-01-09, 01:44:04,VALID,1011.03,VALID,0,VALID,95.7108,VALID,0.105969,VALID,22.8545,VALID,132,VALID,0.764063,
2009-01-09, 01:45:04,VALID,1011.02,VALID,0,VALID,95.6956,VALID,0.105969,VALID,22.8545,VALID,136,VALID,0.546875,
2009-01-09, 01:46:04,VALID,1011.02,VALID,0,VALID,95.688,VALID,0,VALID,22.8545,VALID,152,VALID,0.652734,
2009-01-09, 01:47:04,VALID,1011.01,VALID,0,VALID,95.688,VALID,0.105969,VALID,22.835,VALID,139,VALID,0.448438,
2009-01-09, 01:48:04,VALID,1011,VALID,0,VALID,95.688,VALID,0.105969,VALID,22.8368,VALID,188,VALID,1.08672,
2009-01-09, 01:49:04,VALID,1011.02,VALID,0,VALID,95.6956,VALID,0.105969,VALID,22.8155,VALID,177,VALID,0.916797,
2009-01-09, 01:50:04,VALID,1011.06,VALID,0,VALID,95.688,VALID,0.105969,VALID,22.835,VALID,338,VALID,0.474219,
2009-01-09, 01:51:04,VALID,1011.06,VALID,0,VALID,95.7032,VALID,0,VALID,22.835,VALID,43,VALID,1.11094,
2009-01-09, 01:52:04,VALID,1010.95,VALID,0,VALID,95.6803,VALID,0,VALID,22.7961,VALID,96,VALID,0.992188,
2009-01-09, 01:53:04,VALID,1010.96,VALID,0,VALID,95.7032,VALID,0,VALID,22.7961,VALID,164,VALID,0.619531,
2009-01-09, 01:54:04,VALID,1011.01,VALID,0,VALID,95.6956,VALID,0,VALID,22.8155,VALID,211,VALID,0.345313,
2009-01-09, 01:55:04,VALID,1011,VALID,0,VALID,95.7261,VALID,0.105969,VALID,22.8155,VALID,161,VALID,0.741797,
2009-01-09, 01:56:04,VALID,1011.01,VALID,0,VALID,95.6956,VALID,0.105969,VALID,22.835,VALID,192,VALID,0.859375,
2009-01-09, 01:57:04,VALID,1010.97,VALID,0,VALID,95.688,VALID,0.105969,VALID,22.8757,VALID,254,VALID,0.529688,
2009-01-09, 01:58:04,VALID,1010.96,VALID,0,VALID,95.6956,VALID,0,VALID,22.8545,VALID,358,VALID,0.611719,
2009-01-09, 01:59:04,VALID,1010.95,VALID,0,VALID,95.6956,VALID,0.105969,VALID,22.835,VALID,354,VALID,0.427734,
2009-01-09, 02:00:04,VALID,1010.98,VALID,0,VALID,95.7032,VALID,0.105969,VALID,22.8155,VALID,354,VALID,0.478516,
2009-01-09, 02:01:04,VALID,1011.02,VALID,0,VALID,95.688,VALID,0,VALID,22.8562,VALID,5,VALID,0.892969,
2009-01-09, 02:02:04,VALID,1011.02,VALID,0,VALID,95.688,VALID,0,VALID,22.8173,VALID,11,VALID,0.672656,
2009-01-09, 02:03:04,VALID,1011.03,VALID,0,VALID,95.7108,VALID,0,VALID,22.7766,VALID,353,VALID,0.177344,
2009-01-09, 02:04:04,VALID,1011,VALID,0,VALID,95.7032,VALID,0.105969,VALID,22.8155,VALID,352,VALID,0,
2009-01-09, 02:05:04,VALID,1010.99,VALID,0,VALID,95.7185,VALID,0.105969,VALID,22.8155,VALID,352,VALID,0,
2009-01-09, 02:06:04,VALID,1010.97,VALID,0,VALID,95.7261,VALID,0,VALID,22.7961,VALID,352,VALID,0,
2009-01-09, 02:07:04,VALID,1010.97,VALID,0,VALID,95.7337,VALID,0,VALID,22.7961,VALID,32,VALID,0.380469,
2009-01-09, 02:08:04,VALID,1010.96,VALID,0,VALID,95.7261,VALID,0.105969,VALID,22.8155,VALID,113,VALID,0.323047,
2009-01-09, 02:09:04,VALID,1010.96,VALID,0,VALID,95.7185,VALID,0.105969,VALID,22.835,VALID,112,VALID,0.469531,
2009-01-09, 02:10:04,VALID,1010.93,VALID,0,VALID,95.7566,VALID,0.105969,VALID,22.8155,VALID,153,VALID,0.201562,
2009-01-09, 02:11:04,VALID,1010.94,VALID,0,VALID,95.7261,VALID,0,VALID,22.8545,VALID,153,VALID,0.105859,
2009-01-09, 02:12:04,VALID,1010.93,VALID,0,VALID,95.7261,VALID,0,VALID,22.874,VALID,357,VALID,0.621484,
2009-01-09, 02:13:04,VALID,1010.88,VALID,0,VALID,95.7413,VALID,0.105969,VALID,22.8545,VALID,348,VALID,0.525,
2009-01-09, 02:14:04,VALID,1010.88,VALID,0,VALID,95.7413,VALID,0.105969,VALID,22.8545,VALID,348,VALID,0.298828,
2009-01-09, 02:15:04,VALID,1010.9,VALID,0,VALID,95.7566,VALID,0.105969,VALID,22.8545,VALID,336,VALID,0.43125,
2009-01-09, 02:16:04,VALID,1010.9,VALID,0,VALID,95.7337,VALID,0.105969,VALID,22.835,VALID,336,VALID,0.472656,
2009-01-09, 02:17:04,VALID,1010.88,VALID,0,VALID,95.749,VALID,0.105969,VALID,22.835,VALID,336,VALID,0.127344,
2009-01-09, 02:18:04,VALID,1010.91,VALID,0,VALID,95.749,VALID,0.105969,VALID,22.8155,VALID,336,VALID,0,
2009-01-09, 02:19:04,VALID,1010.92,VALID,0,VALID,95.7413,VALID,0,VALID,22.7961,VALID,336,VALID,0,
2009-01-09, 02:20:04,VALID,1010.9,VALID,0,VALID,95.7566,VALID,0,VALID,22.7961,VALID,336,VALID,0,
2009-01-09, 02:21:04,VALID,1010.9,VALID,0,VALID,95.7566,VALID,0,VALID,22.8173,VALID,336,VALID,0.130078,
2009-01-09, 02:22:04,VALID,1010.9,VALID,0,VALID,95.7642,VALID,0,VALID,22.7766,VALID,336,VALID,0.310156,
2009-01-09, 02:23:04,VALID,1010.86,VALID,0,VALID,95.7566,VALID,0,VALID,22.7571,VALID,46,VALID,0.402734,
2009-01-09, 02:24:04,VALID,1010.85,VALID,0,VALID,95.749,VALID,0,VALID,22.7376,VALID,47,VALID,0.189063,
2009-01-09, 02:25:04,VALID,1010.83,VALID,0,VALID,95.7947,VALID,0,VALID,22.7394,VALID,48,VALID,0.208984,
2009-01-09, 02:26:04,VALID,1010.81,VALID,0,VALID,95.7795,VALID,0,VALID,22.7199,VALID,48,VALID,0,
2009-01-09, 02:27:04,VALID,1010.78,VALID,0,VALID,95.8023,VALID,0,VALID,22.7199,VALID,48,VALID,0,
2009-01-09, 02:28:04,VALID,1010.76,VALID,0,VALID,95.7947,VALID,0,VALID,22.7216,VALID,48,VALID,0,
2009-01-09, 02:29:04,VALID,1010.75,VALID,0,VALID,95.8023,VALID,0,VALID,22.7199,VALID,48,VALID,0,
2009-01-09, 02:30:04,VALID,1010.71,VALID,0,VALID,95.81,VALID,0,VALID,22.7004,VALID,48,VALID,0,
2009-01-09, 02:31:04,VALID,1010.69,VALID,0,VALID,95.8023,VALID,0,VALID,22.6809,VALID,48,VALID,0,
2009-01-09, 02:32:04,VALID,1010.67,VALID,0,VALID,95.81,VALID,0,VALID,22.7199,VALID,48,VALID,0,
2009-01-09, 02:33:04,VALID,1010.65,VALID,0,VALID,95.8176,VALID,0,VALID,22.7004,VALID,48,VALID,0,
2009-01-09, 02:34:04,VALID,1010.64,VALID,0,VALID,95.8252,VALID,0,VALID,22.6809,VALID,48,VALID,0,
2009-01-09, 02:35:04,VALID,1010.63,VALID,0,VALID,95.8023,VALID,0,VALID,22.6614,VALID,48,VALID,0,
2009-01-09, 02:36:04,VALID,1010.58,VALID,0,VALID,95.8328,VALID,0,VALID,22.7021,VALID,48,VALID,0,
2009-01-09, 02:37:05,VALID,1010.56,VALID,0,VALID,95.8328,VALID,0,VALID,22.6614,VALID,48,VALID,0,
2009-01-09, 02:38:05,VALID,1010.55,VALID,0,VALID,95.8405,VALID,0,VALID,22.7021,VALID,48,VALID,0,
2009-01-09, 02:39:05,VALID,1010.54,VALID,0,VALID,95.8633,VALID,0,VALID,22.6614,VALID,48,VALID,0,
2009-01-09, 02:40:05,VALID,1010.51,VALID,0,VALID,95.8557,VALID,0,VALID,22.7199,VALID,48,VALID,0,
2009-01-09, 02:41:05,VALID,1010.5,VALID,0,VALID,95.8405,VALID,0.105969,VALID,22.6792,VALID,48,VALID,0,
2009-01-09, 02:42:05,VALID,1010.5,VALID,0,VALID,95.8557,VALID,0.105969,VALID,22.6792,VALID,48,VALID,0,
2009-01-09, 02:43:05,VALID,1010.47,VALID,0,VALID,95.871,VALID,0.105969,VALID,22.6792,VALID,48,VALID,0,
2009-01-09, 02:44:05,VALID,1010.47,VALID,0,VALID,95.871,VALID,0.105969,VALID,22.6809,VALID,48,VALID,0,
2009-01-09, 02:45:05,VALID,1010.5,VALID,0,VALID,95.8786,VALID,0.105969,VALID,22.6402,VALID,48,VALID,0.130469,
2009-01-09, 02:46:05,VALID,1010.54,VALID,0,VALID,95.8862,VALID,0,VALID,22.6402,VALID,48,VALID,0.258984,
2009-01-09, 02:47:05,VALID,1010.53,VALID,0,VALID,95.8786,VALID,0,VALID,22.6614,VALID,48,VALID,0.202344,
2009-01-09, 02:48:05,VALID,1010.56,VALID,0,VALID,95.8786,VALID,0,VALID,22.6597,VALID,48,VALID,0.322266,
2009-01-09, 02:49:05,VALID,1010.55,VALID,0,VALID,95.8786,VALID,0,VALID,22.6597,VALID,48,VALID,0.100391,
2009-01-09, 02:50:05,VALID,1010.57,VALID,0,VALID,95.8939,VALID,0.105969,VALID,22.6792,VALID,48,VALID,0,
2009-01-09, 02:51:05,VALID,1010.54,VALID,0,VALID,95.8939,VALID,0,VALID,22.6597,VALID,48,VALID,0,
2009-01-09, 02:52:05,VALID,1010.55,VALID,0,VALID,95.9015,VALID,0,VALID,22.6809,VALID,48,VALID,0,
2009-01-09, 02:53:05,VALID,1010.52,VALID,0,VALID,95.9091,VALID,0,VALID,22.7004,VALID,61,VALID,0,
2009-01-09, 02:54:05,VALID,1010.52,VALID,0,VALID,95.9015,VALID,0.105969,VALID,22.7004,VALID,73,VALID,0.532031,
2009-01-09, 02:55:05,VALID,1010.52,VALID,0,VALID,95.9549,VALID,0,VALID,22.6987,VALID,77,VALID,0.543359,
2009-01-09, 02:56:05,VALID,1010.54,VALID,0,VALID,95.9244,VALID,0,VALID,22.7182,VALID,73,VALID,0.58125,
2009-01-09, 02:57:05,VALID,1010.53,VALID,0,VALID,95.932,VALID,0,VALID,22.7004,VALID,65,VALID,0.736719,
2009-01-09, 02:58:05,VALID,1010.48,VALID,0,VALID,95.9244,VALID,0,VALID,22.7004,VALID,56,VALID,0.685938,
2009-01-09, 02:59:05,VALID,1010.48,VALID,0,VALID,95.932,VALID,0,VALID,22.6987,VALID,56,VALID,0.451562,
2009-01-09, 03:00:05,VALID,1010.47,VALID,0,VALID,95.932,VALID,0.105969,VALID,22.6792,VALID,42,VALID,0.728906,
2009-01-09, 03:01:05,VALID,1010.43,VALID,0,VALID,95.932,VALID,0,VALID,22.6809,VALID,51,VALID,0.566406,
2009-01-09, 03:02:05,VALID,1010.41,VALID,0,VALID,95.932,VALID,0,VALID,22.6597,VALID,58,VALID,0.527344,
2009-01-09, 03:03:05,VALID,1010.36,VALID,0,VALID,95.9244,VALID,0.105969,VALID,22.6809,VALID,71,VALID,0.244922,
2009-01-09, 03:04:05,VALID,1010.35,VALID,0,VALID,95.932,VALID,0,VALID,22.6402,VALID,71,VALID,0.271484,
2009-01-09, 03:05:05,VALID,1010.3,VALID,0,VALID,95.9396,VALID,0,VALID,22.6792,VALID,72,VALID,0.4375,
2009-01-09, 03:06:05,VALID,1010.31,VALID,0,VALID,95.932,VALID,0,VALID,22.6597,VALID,75,VALID,0.3875,
2009-01-09, 03:07:05,VALID,1010.31,VALID,0,VALID,95.9396,VALID,0,VALID,22.6792,VALID,94,VALID,0.159766,
2009-01-09, 03:08:05,VALID,1010.28,VALID,0,VALID,95.9396,VALID,0,VALID,22.6597,VALID,103,VALID,0.4,
2009-01-09, 03:09:05,VALID,1010.28,VALID,0,VALID,95.9625,VALID,0.105969,VALID,22.7182,VALID,105,VALID,0.414063,
2009-01-09, 03:10:04,VALID,1010.27,VALID,0,VALID,95.9625,VALID,0,VALID,22.6792,VALID,105,VALID,0.215234,
2009-01-09, 03:11:05,VALID,1010.27,VALID,0,VALID,95.9549,VALID,0.105969,VALID,22.6987,VALID,105,VALID,0,
2009-01-09, 03:12:05,VALID,1010.29,VALID,0,VALID,95.9701,VALID,0.105969,VALID,22.6987,VALID,105,VALID,0.0015625,
2009-01-09, 03:13:05,VALID,1010.27,VALID,0,VALID,95.9549,VALID,0.105969,VALID,22.7199,VALID,105,VALID,0,
2009-01-09, 03:14:05,VALID,1010.24,VALID,0,VALID,95.9549,VALID,0,VALID,22.6987,VALID,105,VALID,0,
2009-01-09, 03:15:05,VALID,1010.23,VALID,0,VALID,95.9472,VALID,0.105969,VALID,22.6792,VALID,105,VALID,0,
2009-01-09, 03:16:05,VALID,1010.22,VALID,0,VALID,95.9701,VALID,0.105969,VALID,22.6792,VALID,105,VALID,0,
2009-01-09, 03:17:05,VALID,1010.2,VALID,0,VALID,95.9701,VALID,0.105969,VALID,22.6792,VALID,105,VALID,0,
2009-01-09, 03:18:05,VALID,1010.18,VALID,0,VALID,95.9625,VALID,0.105969,VALID,22.6792,VALID,105,VALID,0,
2009-01-09, 03:19:05,VALID,1010.16,VALID,0,VALID,95.9777,VALID,0.105969,VALID,22.6597,VALID,105,VALID,0,
2009-01-09, 03:20:05,VALID,1010.16,VALID,0,VALID,95.9701,VALID,0.105969,VALID,22.6809,VALID,105,VALID,0,
2009-01-09, 03:21:05,VALID,1010.15,VALID,0,VALID,95.9625,VALID,0.105969,VALID,22.6597,VALID,105,VALID,0,
2009-01-09, 03:22:05,VALID,1010.14,VALID,0,VALID,95.993,VALID,0.105969,VALID,22.6792,VALID,105,VALID,0,
2009-01-09, 03:23:05,VALID,1010.12,VALID,0,VALID,95.9701,VALID,0,VALID,22.6597,VALID,105,VALID,0,
2009-01-09, 03:24:05,VALID,1010.08,VALID,0,VALID,95.993,VALID,0,VALID,22.6792,VALID,105,VALID,0,
2009-01-09, 03:25:05,VALID,1010.08,VALID,0,VALID,96.0006,VALID,0,VALID,22.6809,VALID,105,VALID,0,
2009-01-09, 03:26:05,VALID,1010.06,VALID,0,VALID,95.9854,VALID,0,VALID,22.7004,VALID,105,VALID,0,
2009-01-09, 03:27:05,VALID,1010.06,VALID,0,VALID,95.9625,VALID,0,VALID,22.6809,VALID,105,VALID,0,
2009-01-09, 03:28:05,VALID,1010.05,VALID,0,VALID,96.0006,VALID,0,VALID,22.6614,VALID,105,VALID,0,
2009-01-09, 03:29:05,VALID,1010.04,VALID,0,VALID,96.0006,VALID,0,VALID,22.6614,VALID,105,VALID,0,
2009-01-09, 03:30:05,VALID,1010.02,VALID,0,VALID,96.0082,VALID,0,VALID,22.6614,VALID,105,VALID,0,
2009-01-09, 03:31:05,VALID,1010.01,VALID,0,VALID,95.9854,VALID,0,VALID,22.6809,VALID,105,VALID,0,
2009-01-09, 03:32:05,VALID,1009.96,VALID,0,VALID,96.0082,VALID,0,VALID,22.6614,VALID,105,VALID,0,
2009-01-09, 03:33:05,VALID,1009.98,VALID,0,VALID,96.0159,VALID,0,VALID,22.7021,VALID,105,VALID,0,
2009-01-09, 03:34:05,VALID,1009.99,VALID,0,VALID,96.0082,VALID,0,VALID,22.6809,VALID,105,VALID,0,
2009-01-09, 03:35:05,VALID,1009.98,VALID,0,VALID,96.0235,VALID,0,VALID,22.6809,VALID,105,VALID,0,
2009-01-09, 03:36:05,VALID,1009.94,VALID,0,VALID,96.0311,VALID,0,VALID,22.6614,VALID,105,VALID,0,
2009-01-09, 03:37:05,VALID,1009.98,VALID,0,VALID,96.0082,VALID,0,VALID,22.6632,VALID,105,VALID,0,
2009-01-09, 03:38:05,VALID,1009.94,VALID,0,VALID,96.0159,VALID,0,VALID,22.6632,VALID,105,VALID,0,
2009-01-09, 03:39:05,VALID,1009.94,VALID,0,VALID,96.0311,VALID,0,VALID,22.642,VALID,105,VALID,0,
2009-01-09, 03:40:05,VALID,1009.92,VALID,0,VALID,96.0464,VALID,0,VALID,22.6402,VALID,105,VALID,0,
2009-01-09, 03:41:05,VALID,1009.88,VALID,0,VALID,96.0159,VALID,0,VALID,22.6597,VALID,105,VALID,0,
2009-01-09, 03:42:05,VALID,1009.88,VALID,0,VALID,96.0235,VALID,0,VALID,22.6614,VALID,105,VALID,0,
2009-01-09, 03:43:05,VALID,1009.85,VALID,0,VALID,96.0387,VALID,0.105969,VALID,22.6402,VALID,105,VALID,0,
2009-01-09, 03:44:05,VALID,1009.86,VALID,0,VALID,96.0082,VALID,0.105969,VALID,22.6809,VALID,105,VALID,0,